User: anonymous   Login
Location: Unspecified
(0.0000°N, 0.0000°E)
Time: 08:54:27
(UTC+00:00)
Language:

OTV 5 (USA 277) - Orbit

View from above orbital plane
View from above orbital plane
View from above satellite
View from above satellite

Ground track
Ground track

The orbit data is extracted from the following two-line orbital elements,

1 42932U 17052A   19110.07765369 0.00000500  00000-0  21237-5 0    08
2 42932  54.5128 137.0396 0012000 147.9097 212.0902 15.84500099    03
Epoch (UTC): 20 April 2019 01:51:49
Eccentricity: 0.0012000
inclination: 54.5128°
perigee height: 310 km
apogee height: 326 km
right ascension of ascending node: 137.0396°
argument of perigee: 147.9097°
revolutions per day: 15.84500099
mean anomaly at epoch: 212.0902°
orbit number at epoch: 0

The dashed part of the orbit path shows where the satellite is in the earth's shadow,  

DLR